Time,TemperatureF,DewpointF,PressureIn,WindDirection,WindDirectionDegrees,WindSpeedMPH,WindSpeedGustMPH,Humidity,HourlyPrecipIn,Conditions,Clouds,dailyrainin,SoftwareType,DateUTC
2013-04-11 00:12:00,38.9,38.0,29.74,ENE,57,0.0,0.0,96,0.02,,,0.01,weatherlink.com 1.10,2013-04-11 05:12:00,
2013-04-11 00:27:00,38.9,38.0,29.73,ENE,57,1.0,5.0,96,0.03,,,0.02,weatherlink.com 1.10,2013-04-11 05:27:00,
2013-04-11 00:42:00,39.0,38.0,29.71,ENE,58,5.0,9.0,96,0.03,,,0.03,weatherlink.com 1.10,2013-04-11 05:42:00,
2013-04-11 00:57:00,38.9,38.0,29.71,ENE,69,8.0,10.0,96,0.03,,,0.03,weatherlink.com 1.10,2013-04-11 05:57:00,
2013-04-11 01:12:00,38.6,38.0,29.71,ENE,78,3.0,9.0,96,0.04,,,0.05,weatherlink.com 1.10,2013-04-11 06:12:00,
2013-04-11 01:27:00,38.6,38.0,29.71,ENE,78,0.0,0.0,96,0.05,,,0.07,weatherlink.com 1.10,2013-04-11 06:27:00,
2013-04-11 01:42:00,38.6,38.0,29.72,ENE,78,0.0,0.0,96,0.06,,,0.09,weatherlink.com 1.10,2013-04-11 06:42:00,
2013-04-11 01:57:00,38.7,38.0,29.70,ENE,78,0.0,0.0,96,0.07,,,0.10,weatherlink.com 1.10,2013-04-11 06:57:00,
2013-04-11 02:12:00,38.7,38.0,29.70,ENE,78,0.0,0.0,96,0.06,,,0.11,weatherlink.com 1.10,2013-04-11 07:12:00,
2013-04-11 02:27:00,38.6,38.0,29.71,ENE,78,0.0,0.0,96,0.06,,,0.13,weatherlink.com 1.10,2013-04-11 07:27:00,
2013-04-11 02:43:00,38.6,38.0,29.70,ENE,78,0.0,0.0,96,0.07,,,0.16,weatherlink.com 1.10,2013-04-11 07:43:00,
2013-04-11 02:58:00,38.6,38.0,29.69,ENE,78,0.0,0.0,96,0.07,,,0.17,weatherlink.com 1.10,2013-04-11 07:58:00,
2013-04-11 03:13:00,38.6,38.0,29.69,ENE,78,0.0,0.0,96,0.08,,,0.19,weatherlink.com 1.10,2013-04-11 08:13:00,
2013-04-11 03:28:00,38.6,38.0,29.69,ENE,78,0.0,0.0,96,0.06,,,0.20,weatherlink.com 1.10,2013-04-11 08:28:00,
2013-04-11 03:43:00,38.6,38.0,29.69,ENE,78,0.0,0.0,96,0.05,,,0.21,weatherlink.com 1.10,2013-04-11 08:43:00,
2013-04-11 03:58:00,38.6,38.0,29.68,ENE,78,0.0,0.0,96,0.04,,,0.21,weatherlink.com 1.10,2013-04-11 08:58:00,
2013-04-11 04:13:00,38.6,38.0,29.67,ENE,77,0.0,4.0,96,0.03,,,0.22,weatherlink.com 1.10,2013-04-11 09:13:00,
2013-04-11 04:28:00,38.6,38.0,29.64,NE,52,3.0,6.0,96,0.02,,,0.22,weatherlink.com 1.10,2013-04-11 09:28:00,
2013-04-11 04:43:00,38.4,37.0,29.63,NE,41,3.0,6.0,96,0.02,,,0.23,weatherlink.com 1.10,2013-04-11 09:43:00,
2013-04-11 04:58:00,38.3,37.0,29.62,NE,40,2.0,4.0,96,0.02,,,0.23,weatherlink.com 1.10,2013-04-11 09:58:00,
2013-04-11 05:13:00,38.2,37.0,29.62,NE,40,0.0,0.0,96,0.01,,,0.23,weatherlink.com 1.10,2013-04-11 10:13:00,
2013-04-11 05:28:00,38.2,37.0,29.63,NE,40,0.0,0.0,96,0.01,,,0.23,weatherlink.com 1.10,2013-04-11 10:28:00,
2013-04-11 05:43:00,38.4,37.0,29.64,NE,40,0.0,0.0,96,0.00,,,0.23,weatherlink.com 1.10,2013-04-11 10:43:00,
2013-04-11 05:58:00,38.4,37.0,29.65,NE,40,0.0,0.0,96,0.00,,,0.23,weatherlink.com 1.10,2013-04-11 10:58:00,
2013-04-11 06:13:00,38.5,38.0,29.64,NE,41,0.0,0.0,96,0.00,,,0.23,weatherlink.com 1.10,2013-04-11 11:13:00,
2013-04-11 06:28:00,38.4,37.0,29.63,NE,40,0.0,0.0,96,0.00,,,0.23,weatherlink.com 1.10,2013-04-11 11:28:00,
2013-04-11 06:43:00,38.4,37.0,29.63,NE,40,0.0,0.0,96,0.00,,,0.23,weatherlink.com 1.10,2013-04-11 11:43:00,
2013-04-11 06:58:00,38.5,38.0,29.63,NE,36,0.0,0.0,96,0.00,,,0.23,weatherlink.com 1.10,2013-04-11 11:58:00,
2013-04-11 07:13:00,38.4,37.0,29.63,NE,36,0.0,0.0,96,0.00,,,0.23,weatherlink.com 1.10,2013-04-11 12:13:00,
2013-04-11 07:28:00,38.4,37.0,29.63,NE,36,0.0,0.0,96,0.00,,,0.23,weatherlink.com 1.10,2013-04-11 12:28:00,
2013-04-11 07:43:00,38.6,38.0,29.63,NE,36,0.0,4.0,96,0.00,,,0.23,weatherlink.com 1.10,2013-04-11 12:43:00,
2013-04-11 07:58:00,38.8,38.0,29.64,NE,35,3.0,5.0,96,0.00,,,0.23,weatherlink.com 1.10,2013-04-11 12:58:00,
2013-04-11 08:13:00,38.9,38.0,29.64,NE,34,1.0,7.0,96,0.00,,,0.23,weatherlink.com 1.10,2013-04-11 13:13:00,
2013-04-11 08:28:00,39.0,38.0,29.65,NNE,22,2.0,8.0,96,0.00,,,0.23,weatherlink.com 1.10,2013-04-11 13:28:00,
2013-04-11 08:43:00,39.0,38.0,29.65,WSW,246,3.0,11.0,96,0.00,,,0.23,weatherlink.com 1.10,2013-04-11 13:43:00,
2013-04-11 08:58:00,38.9,38.0,29.65,SW,234,7.0,12.0,96,0.01,,,0.24,weatherlink.com 1.10,2013-04-11 13:58:00,
2013-04-11 09:13:00,39.1,38.0,29.64,WSW,252,6.0,11.0,96,0.01,,,0.24,weatherlink.com 1.10,2013-04-11 14:13:00,
2013-04-11 09:28:00,38.8,38.0,29.63,WSW,248,5.0,14.0,96,0.01,,,0.24,weatherlink.com 1.10,2013-04-11 14:28:00,
2013-04-11 09:43:00,38.6,38.0,29.63,WSW,242,4.0,14.0,96,0.01,,,0.24,weatherlink.com 1.10,2013-04-11 14:43:00,
2013-04-11 09:58:00,38.7,38.0,29.63,WSW,238,12.0,14.0,96,0.00,,,0.24,weatherlink.com 1.10,2013-04-11 14:58:00,
2013-04-11 10:13:00,38.8,38.0,29.63,WSW,257,4.0,14.0,96,0.00,,,0.24,weatherlink.com 1.10,2013-04-11 15:13:00,
2013-04-11 10:28:00,39.2,38.0,29.63,WSW,241,5.0,15.0,95,0.00,,,0.24,weatherlink.com 1.10,2013-04-11 15:28:00,
2013-04-11 10:43:00,39.9,39.0,29.63,WSW,245,8.0,14.0,95,0.00,,,0.24,weatherlink.com 1.10,2013-04-11 15:43:00,
2013-04-11 10:58:00,39.7,38.0,29.63,WSW,257,13.0,16.0,93,0.00,,,0.24,weatherlink.com 1.10,2013-04-11 15:58:00,
2013-04-11 11:13:00,39.7,38.0,29.61,WSW,246,6.0,18.0,92,0.00,,,0.24,weatherlink.com 1.10,2013-04-11 16:13:00,
2013-04-11 11:28:00,39.5,37.0,29.61,West,270,9.0,15.0,90,0.00,,,0.24,weatherlink.com 1.10,2013-04-11 16:28:00,
2013-04-11 11:43:00,38.9,36.0,29.63,West,265,14.0,19.0,89,0.00,,,0.24,weatherlink.com 1.10,2013-04-11 16:43:00,
2013-04-11 11:58:00,38.4,36.0,29.62,WSW,245,7.0,17.0,89,0.00,,,0.24,weatherlink.com 1.10,2013-04-11 16:58:00,
2013-04-11 12:13:00,38.5,36.0,29.63,WSW,257,7.0,18.0,89,0.00,,,0.24,weatherlink.com 1.10,2013-04-11 17:13:00,
2013-04-11 12:28:00,38.6,36.0,29.63,West,259,7.0,17.0,91,0.01,,,0.25,weatherlink.com 1.10,2013-04-11 17:28:00,
2013-04-11 12:43:00,38.2,36.0,29.63,WSW,257,4.0,19.0,92,0.02,,,0.26,weatherlink.com 1.10,2013-04-11 17:43:00,
2013-04-11 12:58:00,38.2,36.0,29.63,WSW,252,12.0,18.0,92,0.02,,,0.26,weatherlink.com 1.10,2013-04-11 17:58:00,
2013-04-11 13:13:00,38.0,36.0,29.63,WSW,250,5.0,13.0,93,0.03,,,0.27,weatherlink.com 1.10,2013-04-11 18:13:00,
2013-04-11 13:28:00,37.1,35.0,29.64,WSW,246,3.0,18.0,92,0.02,,,0.27,weatherlink.com 1.10,2013-04-11 18:28:00,
2013-04-11 13:43:00,36.9,35.0,29.63,WSW,252,20.0,20.0,92,0.01,,,0.27,weatherlink.com 1.10,2013-04-11 18:43:00,
2013-04-11 13:58:00,36.2,34.0,29.64,WSW,258,6.0,20.0,93,0.01,,,0.27,weatherlink.com 1.10,2013-04-11 18:58:00,
2013-04-11 14:14:00,36.6,35.0,29.64,WSW,246,5.0,19.0,94,0.01,,,0.28,weatherlink.com 1.10,2013-04-11 19:14:00,
2013-04-11 14:29:00,36.1,34.0,29.64,WSW,242,8.0,24.0,93,0.01,,,0.28,weatherlink.com 1.10,2013-04-11 19:29:00,
2013-04-11 14:44:00,35.9,34.0,29.65,WSW,249,9.0,23.0,93,0.02,,,0.29,weatherlink.com 1.10,2013-04-11 19:44:00,
2013-04-11 14:59:00,36.4,35.0,29.65,WSW,250,5.0,23.0,94,0.02,,,0.29,weatherlink.com 1.10,2013-04-11 19:59:00,
2013-04-11 15:14:00,36.9,35.0,29.65,WSW,243,10.0,17.0,93,0.01,,,0.29,weatherlink.com 1.10,2013-04-11 20:14:00,
2013-04-11 15:29:00,37.4,35.0,29.64,SW,223,5.0,20.0,92,0.01,,,0.29,weatherlink.com 1.10,2013-04-11 20:29:00,
2013-04-11 15:44:00,38.4,36.0,29.64,West,265,4.0,8.0,91,0.00,,,0.29,weatherlink.com 1.10,2013-04-11 20:44:00,
2013-04-11 15:59:00,37.9,35.0,29.63,WSW,254,6.0,16.0,89,0.00,,,0.29,weatherlink.com 1.10,2013-04-11 20:59:00,
2013-04-11 16:14:00,37.7,35.0,29.64,SW,234,1.0,14.0,88,0.00,,,0.29,weatherlink.com 1.10,2013-04-11 21:14:00,
2013-04-11 16:29:00,37.4,34.0,29.64,WSW,249,8.0,15.0,88,0.00,,,0.29,weatherlink.com 1.10,2013-04-11 21:29:00,
2013-04-11 16:44:00,36.5,33.0,29.64,WSW,242,8.0,19.0,88,0.00,,,0.29,weatherlink.com 1.10,2013-04-11 21:44:00,
2013-04-11 16:59:00,36.1,34.0,29.64,WSW,240,14.0,16.0,90,0.00,,,0.29,weatherlink.com 1.10,2013-04-11 21:59:00,
2013-04-11 17:14:00,36.1,34.0,29.63,WSW,250,13.0,18.0,90,0.00,,,0.29,weatherlink.com 1.10,2013-04-11 22:14:00,
2013-04-11 17:29:00,36.4,34.0,29.63,WSW,246,4.0,15.0,89,0.00,,,0.29,weatherlink.com 1.10,2013-04-11 22:29:00,
2013-04-11 17:44:00,36.4,33.0,29.63,WSW,239,10.0,18.0,88,0.00,,,0.29,weatherlink.com 1.10,2013-04-11 22:44:00,
2013-04-11 17:59:00,36.6,33.0,29.62,SW,219,4.0,17.0,87,0.00,,,0.29,weatherlink.com 1.10,2013-04-11 22:59:00,
2013-04-11 18:14:00,36.7,33.0,29.62,WSW,252,5.0,16.0,87,0.00,,,0.29,weatherlink.com 1.10,2013-04-11 23:14:00,
2013-04-11 18:29:00,36.8,33.0,29.62,SW,224,8.0,15.0,87,0.00,,,0.29,weatherlink.com 1.10,2013-04-11 23:29:00,
2013-04-11 18:44:00,36.6,33.0,29.62,WSW,242,6.0,17.0,87,0.00,,,0.29,weatherlink.com 1.10,2013-04-11 23:44:00,
2013-04-11 18:59:00,36.4,33.0,29.62,SW,228,9.0,19.0,88,0.00,,,0.29,weatherlink.com 1.10,2013-04-11 23:59:00,
2013-04-11 19:14:00,36.1,33.0,29.62,SW,232,4.0,17.0,87,0.00,,,0.29,weatherlink.com 1.10,2013-04-12 00:14:00,
2013-04-11 19:29:00,36.0,33.0,29.63,SW,234,10.0,17.0,88,0.00,,,0.29,weatherlink.com 1.10,2013-04-12 00:29:00,
2013-04-11 19:44:00,35.9,33.0,29.64,SW,227,3.0,12.0,88,0.00,,,0.29,weatherlink.com 1.10,2013-04-12 00:44:00,
2013-04-11 19:59:00,35.8,33.0,29.64,SW,217,0.0,9.0,88,0.00,,,0.29,weatherlink.com 1.10,2013-04-12 00:59:00,
2013-04-11 20:14:00,35.7,33.0,29.63,SW,217,6.0,8.0,89,0.00,,,0.29,weatherlink.com 1.10,2013-04-12 01:14:00,
2013-04-11 20:28:00,35.7,33.0,29.63,SW,224,4.0,11.0,89,0.00,,,0.29,weatherlink.com 1.10,2013-04-12 01:28:00,
2013-04-11 20:43:00,35.6,33.0,29.63,SW,223,3.0,9.0,90,0.00,,,0.29,weatherlink.com 1.10,2013-04-12 01:43:00,
2013-04-11 20:58:00,35.5,33.0,29.63,SW,223,5.0,7.0,90,0.00,,,0.29,weatherlink.com 1.10,2013-04-12 01:58:00,
2013-04-11 21:13:00,35.5,33.0,29.64,SW,223,4.0,8.0,91,0.00,,,0.29,weatherlink.com 1.10,2013-04-12 02:13:00,
2013-04-11 21:28:00,35.5,33.0,29.64,SW,219,4.0,12.0,91,0.00,,,0.29,weatherlink.com 1.10,2013-04-12 02:28:00,
2013-04-11 21:43:00,35.6,34.0,29.64,SW,219,4.0,7.0,92,0.00,,,0.29,weatherlink.com 1.10,2013-04-12 02:43:00,
2013-04-11 21:58:00,35.6,34.0,29.64,SW,232,3.0,9.0,92,0.00,,,0.29,weatherlink.com 1.10,2013-04-12 02:58:00,
2013-04-11 22:13:00,35.7,34.0,29.63,WSW,243,10.0,13.0,93,0.01,,,0.30,weatherlink.com 1.10,2013-04-12 03:13:00,
2013-04-11 22:28:00,35.7,34.0,29.64,WSW,238,12.0,15.0,93,0.01,,,0.30,weatherlink.com 1.10,2013-04-12 03:28:00,
2013-04-11 22:43:00,35.6,34.0,29.63,WSW,248,7.0,15.0,93,0.01,,,0.30,weatherlink.com 1.10,2013-04-12 03:43:00,
2013-04-11 22:58:00,35.6,34.0,29.63,WSW,242,6.0,17.0,94,0.01,,,0.30,weatherlink.com 1.10,2013-04-12 03:58:00,
2013-04-11 23:13:00,35.6,34.0,29.63,West,267,9.0,17.0,94,0.00,,,0.30,weatherlink.com 1.10,2013-04-12 04:13:00,
2013-04-11 23:28:00,35.3,34.0,29.63,West,259,9.0,16.0,94,0.00,,,0.30,weatherlink.com 1.10,2013-04-12 04:28:00,
2013-04-11 23:43:00,35.2,34.0,29.63,West,268,10.0,14.0,94,0.00,,,0.30,weatherlink.com 1.10,2013-04-12 04:43:00,
2013-04-11 23:58:00,35.1,34.0,29.64,West,273,4.0,14.0,94,0.00,,,0.30,weatherlink.com 1.10,2013-04-12 04:58:00,